Location: Indian Tree Observatory
(39.4030°N, 104.5929°W)
Time: 09:07:54
(UTC-07:00)

Envisat - Pass Details

Date: 23 November 2018
Orbit: 764 x 766 km, 98.2° (Epoch: 11 December)

Event Time Altitude Azimuth Distance (km) Brightness Sun altitude
Rises 18:32:08 0° 156° (SSE) 3,214 6.1 -21.7°
Enters shadow 18:34:27 10° 153° (SSE) 2,288 5.3 -22.2°
Exits shadow 18:38:34 53° 116° (ESE) 940 3.1 -23.0°
Maximum altitude 18:39:25 61° 73° (ENE) 868 2.9 -23.1°
Drops below altitude 10° 18:44:25 10° 355° (N) 2,306 5.4 -24.1°
Sets 18:46:45 0° 352° (N) 3,236 6.3 -24.5°
